Time,TemperatureF,DewpointF,PressureIn,WindDirection,WindDirectionDegrees,WindSpeedMPH,WindSpeedGustMPH,Humidity,HourlyPrecipIn,Conditions,Clouds,dailyrainin,SolarRadiationWatts/m^2,SoftwareType,DateUTC
2013-02-14 00:03:00,39.1,38.1,29.98,ESE,122,2.0,4.0,96,0.00,,,0.00,0,WeatherCatV1.13B101,2013-02-14 00:03:00,
2013-02-14 00:08:00,39.2,38.2,29.97,NW,312,3.0,7.0,96,0.00,,,0.00,0,WeatherCatV1.13B101,2013-02-14 00:08:00,
2013-02-14 00:13:00,39.4,38.6,29.97,North,0,3.0,6.0,97,0.00,,,0.00,0,WeatherCatV1.13B101,2013-02-14 00:13:00,
2013-02-14 00:18:00,39.5,38.5,29.96,NW,306,2.0,5.0,96,0.00,,,0.00,0,WeatherCatV1.13B101,2013-02-14 00:18:00,
2013-02-14 00:23:00,39.5,38.5,29.96,ESE,105,1.0,5.0,96,0.00,,,0.01,0,WeatherCatV1.13B101,2013-02-14 00:23:00,
2013-02-14 00:28:00,39.7,38.7,29.96,WNW,298,5.0,7.0,96,0.00,,,0.01,0,WeatherCatV1.13B101,2013-02-14 00:28:00,
2013-02-14 00:33:00,39.7,38.9,29.95,ESE,119,2.0,4.0,97,0.00,,,0.01,0,WeatherCatV1.13B101,2013-02-14 00:33:00,
2013-02-14 00:38:00,39.8,39.0,29.95,NW,321,2.0,6.0,97,0.00,,,0.01,0,WeatherCatV1.13B101,2013-02-14 00:38:00,
2013-02-14 00:43:00,39.9,38.9,29.95,North,5,3.0,6.0,96,0.00,,,0.01,0,WeatherCatV1.13B101,2013-02-14 00:43:00,
2013-02-14 00:48:00,40.0,39.0,29.95,West,279,1.0,4.0,96,0.00,,,0.02,0,WeatherCatV1.13B101,2013-02-14 00:48:00,
2013-02-14 00:53:00,40.0,39.0,29.94,SE,137,2.0,5.0,96,0.00,,,0.02,0,WeatherCatV1.13B101,2013-02-14 00:53:00,
2013-02-14 00:58:00,40.1,39.1,29.94,ESE,118,3.0,5.0,96,0.00,,,0.02,0,WeatherCatV1.13B101,2013-02-14 00:58:00,
2013-02-14 01:03:00,40.2,39.2,29.94,ESE,118,9.0,9.0,96,0.00,,,0.02,0,WeatherCatV1.13B101,2013-02-14 01:03:00,
2013-02-14 01:08:00,40.2,39.2,29.93,NNW,334,3.0,6.0,96,0.00,,,0.02,0,WeatherCatV1.13B101,2013-02-14 01:08:00,
2013-02-14 01:13:00,40.3,39.3,29.93,WNW,290,4.0,4.0,96,0.00,,,0.02,0,WeatherCatV1.13B101,2013-02-14 01:13:00,
2013-02-14 01:18:00,40.4,39.4,29.93,SSE,168,4.0,5.0,96,0.00,,,0.02,0,WeatherCatV1.13B101,2013-02-14 01:18:00,
2013-02-14 01:23:00,40.4,39.4,29.92,ENE,77,2.0,6.0,96,0.00,,,0.02,0,WeatherCatV1.13B101,2013-02-14 01:23:00,
2013-02-14 01:28:00,40.5,39.5,29.92,NNW,339,0.0,10.0,96,0.00,,,0.02,0,WeatherCatV1.13B101,2013-02-14 01:28:00,
2013-02-14 01:33:00,40.6,39.5,29.92,WNW,289,1.0,6.0,96,0.00,,,0.02,0,WeatherCatV1.13B101,2013-02-14 01:33:00,
2013-02-14 01:38:00,40.6,39.5,29.92,NNE,13,4.0,11.0,96,0.00,,,0.02,0,WeatherCatV1.13B101,2013-02-14 01:38:00,
2013-02-14 01:43:00,40.8,39.7,29.91,West,275,7.0,8.0,96,0.00,,,0.02,0,WeatherCatV1.13B101,2013-02-14 01:43:00,
2013-02-14 01:48:00,40.8,39.7,29.91,North,10,3.0,5.0,96,0.00,,,0.02,0,WeatherCatV1.13B101,2013-02-14 01:48:00,
2013-02-14 01:53:00,40.8,39.7,29.90,SSE,162,1.0,3.0,96,0.00,,,0.02,0,WeatherCatV1.13B101,2013-02-14 01:53:00,
2013-02-14 01:58:00,40.9,39.8,29.90,ESE,117,7.0,7.0,96,0.00,,,0.02,0,WeatherCatV1.13B101,2013-02-14 01:58:00,
2013-02-14 02:03:00,40.9,39.8,29.90,NW,304,4.0,7.0,96,0.00,,,0.02,0,WeatherCatV1.13B101,2013-02-14 02:03:00,
2013-02-14 02:08:00,41.0,39.9,29.89,NNW,335,5.0,7.0,96,0.00,,,0.02,0,WeatherCatV1.13B101,2013-02-14 02:08:00,
2013-02-14 02:13:00,41.0,39.9,29.89,NW,317,2.0,8.0,96,0.00,,,0.02,0,WeatherCatV1.13B101,2013-02-14 02:13:00,
2013-02-14 02:18:00,41.1,40.0,29.89,SE,130,3.0,7.0,96,0.00,,,0.02,0,WeatherCatV1.13B101,2013-02-14 02:18:00,
2013-02-14 02:23:00,41.1,40.0,29.88,SSE,150,3.0,8.0,96,0.00,,,0.02,0,WeatherCatV1.13B101,2013-02-14 02:23:00,
2013-02-14 02:28:00,41.1,40.0,29.88,SE,140,2.0,6.0,96,0.00,,,0.02,0,WeatherCatV1.13B101,2013-02-14 02:28:00,
2013-02-14 02:33:00,41.2,40.1,29.88,ESE,113,4.0,6.0,96,0.00,,,0.02,0,WeatherCatV1.13B101,2013-02-14 02:33:00,
2013-02-14 02:38:00,41.2,40.1,29.87,ESE,120,1.0,9.0,96,0.00,,,0.02,0,WeatherCatV1.13B101,2013-02-14 02:38:00,
2013-02-14 02:43:00,41.3,40.2,29.86,North,9,4.0,6.0,96,0.00,,,0.02,0,WeatherCatV1.13B101,2013-02-14 02:43:00,
2013-02-14 02:48:00,41.3,40.2,29.86,NW,325,2.0,13.0,96,0.00,,,0.02,0,WeatherCatV1.13B101,2013-02-14 02:48:00,
2013-02-14 02:53:00,41.4,40.3,29.86,SE,144,6.0,7.0,96,0.00,,,0.02,0,WeatherCatV1.13B101,2013-02-14 02:53:00,
2013-02-14 02:58:00,41.4,40.3,29.85,WNW,301,4.0,8.0,96,0.00,,,0.02,0,WeatherCatV1.13B101,2013-02-14 02:58:00,
2013-02-14 03:03:00,41.5,40.4,29.85,SSE,167,4.0,10.0,96,0.00,,,0.02,0,WeatherCatV1.13B101,2013-02-14 03:03:00,
2013-02-14 03:08:00,41.5,40.4,29.85,NNW,339,8.0,9.0,96,0.00,,,0.02,0,WeatherCatV1.13B101,2013-02-14 03:08:00,
2013-02-14 03:13:00,41.6,40.5,29.84,SE,142,5.0,5.0,96,0.00,,,0.02,0,WeatherCatV1.13B101,2013-02-14 03:13:00,
2013-02-14 03:18:00,41.7,40.9,29.84,West,276,1.0,4.0,97,0.00,,,0.02,0,WeatherCatV1.13B101,2013-02-14 03:18:00,
2013-02-14 03:23:00,41.7,40.9,29.84,SE,134,3.0,7.0,97,0.00,,,0.02,0,WeatherCatV1.13B101,2013-02-14 03:23:00,
2013-02-14 03:28:00,41.9,41.1,29.83,NNW,341,1.0,8.0,97,0.00,,,0.02,0,WeatherCatV1.13B101,2013-02-14 03:28:00,
2013-02-14 03:33:00,42.0,41.2,29.83,NNW,333,3.0,5.0,97,0.00,,,0.02,0,WeatherCatV1.13B101,2013-02-14 03:33:00,
2013-02-14 03:38:00,42.0,41.2,29.82,WNW,286,3.0,6.0,97,0.00,,,0.02,0,WeatherCatV1.13B101,2013-02-14 03:38:00,
2013-02-14 03:43:00,42.0,41.2,29.82,SE,142,6.0,8.0,97,0.00,,,0.02,0,WeatherCatV1.13B101,2013-02-14 03:43:00,
2013-02-14 03:48:00,42.0,41.2,29.82,SW,228,2.0,15.0,97,0.00,,,0.02,0,WeatherCatV1.13B101,2013-02-14 03:48:00,
2013-02-14 03:53:00,42.1,41.3,29.81,SE,135,3.0,9.0,97,0.00,,,0.02,0,WeatherCatV1.13B101,2013-02-14 03:53:00,
2013-02-14 03:58:00,42.2,41.4,29.81,SSE,148,1.0,5.0,97,0.00,,,0.02,0,WeatherCatV1.13B101,2013-02-14 03:58:00,
2013-02-14 04:03:00,42.3,41.5,29.81,NW,313,4.0,6.0,97,0.00,,,0.02,0,WeatherCatV1.13B101,2013-02-14 04:03:00,
2013-02-14 04:08:00,42.4,41.6,29.80,SE,140,5.0,13.0,97,0.00,,,0.02,0,WeatherCatV1.13B101,2013-02-14 04:08:00,
2013-02-14 04:13:00,42.5,41.7,29.80,North,355,2.0,6.0,97,0.00,,,0.02,0,WeatherCatV1.13B101,2013-02-14 04:13:00,
2013-02-14 04:18:00,42.7,41.9,29.80,NW,326,4.0,10.0,97,0.00,,,0.02,0,WeatherCatV1.13B101,2013-02-14 04:18:00,
2013-02-14 04:23:00,42.8,42.3,29.79,West,263,1.0,4.0,98,0.00,,,0.02,0,WeatherCatV1.13B101,2013-02-14 04:23:00,
2013-02-14 04:28:00,43.0,42.5,29.78,SE,126,2.0,11.0,98,0.00,,,0.02,0,WeatherCatV1.13B101,2013-02-14 04:28:00,
2013-02-14 04:33:00,43.1,42.6,29.78,East,101,2.0,7.0,98,0.00,,,0.02,0,WeatherCatV1.13B101,2013-02-14 04:33:00,
2013-02-14 04:38:00,43.2,42.4,29.77,NE,55,0.0,4.0,97,0.00,,,0.02,0,WeatherCatV1.13B101,2013-02-14 04:38:00,
2013-02-14 04:43:00,43.3,42.8,29.77,SE,137,1.0,7.0,98,0.00,,,0.02,0,WeatherCatV1.13B101,2013-02-14 04:43:00,
2013-02-14 04:48:00,43.4,42.9,29.77,WSW,255,2.0,9.0,98,0.00,,,0.02,0,WeatherCatV1.13B101,2013-02-14 04:48:00,
2013-02-14 04:53:00,43.5,43.0,29.76,NNE,32,3.0,7.0,98,0.00,,,0.02,0,WeatherCatV1.13B101,2013-02-14 04:53:00,
2013-02-14 04:58:00,43.6,43.1,29.76,NW,321,3.0,6.0,98,0.00,,,0.03,0,WeatherCatV1.13B101,2013-02-14 04:58:00,
2013-02-14 05:00:00,43.7,43.2,29.76,SSE,150,3.0,6.0,98,0.00,,,0.03,0,WeatherCatV1.13B101,2013-02-14 05:00:00,
2013-02-14 05:05:00,43.8,43.3,29.76,NW,319,3.0,8.0,98,0.00,,,0.03,0,WeatherCatV1.13B101,2013-02-14 05:05:00,
2013-02-14 05:10:00,44.0,43.5,29.75,NNW,344,3.0,7.0,98,0.03,,,0.04,0,WeatherCatV1.13B101,2013-02-14 05:10:00,
2013-02-14 05:15:00,44.1,43.6,29.75,East,92,5.0,5.0,98,0.03,,,0.04,0,WeatherCatV1.13B101,2013-02-14 05:15:00,
2013-02-14 05:20:00,44.2,43.7,29.75,East,94,3.0,6.0,98,0.03,,,0.04,0,WeatherCatV1.13B101,2013-02-14 05:20:00,
2013-02-14 05:25:00,44.4,43.9,29.75,NW,319,4.0,4.0,98,0.03,,,0.04,0,WeatherCatV1.13B101,2013-02-14 05:25:00,
2013-02-14 05:30:00,44.6,44.1,29.74,SSE,157,1.0,5.0,98,0.00,,,0.04,0,WeatherCatV1.13B101,2013-02-14 05:30:00,
2013-02-14 05:35:00,44.7,44.2,29.74,West,271,3.0,6.0,98,0.00,,,0.04,0,WeatherCatV1.13B101,2013-02-14 05:35:00,
2013-02-14 05:40:00,44.9,44.4,29.74,SE,132,3.0,8.0,98,0.00,,,0.04,0,WeatherCatV1.13B101,2013-02-14 05:40:00,
2013-02-14 05:45:00,45.1,44.6,29.74,NW,323,1.0,9.0,98,0.00,,,0.04,0,WeatherCatV1.13B101,2013-02-14 05:45:00,
2013-02-14 05:50:00,45.1,44.6,29.73,NNW,330,5.0,12.0,98,0.00,,,0.05,0,WeatherCatV1.13B101,2013-02-14 05:50:00,
2013-02-14 05:55:00,45.2,44.7,29.73,West,267,4.0,10.0,98,0.00,,,0.05,0,WeatherCatV1.13B101,2013-02-14 05:55:00,
2013-02-14 06:00:00,45.2,44.7,29.73,SE,136,4.0,5.0,98,0.00,,,0.05,0,WeatherCatV1.13B101,2013-02-14 06:00:00,
2013-02-14 06:05:00,45.2,44.7,29.73,NW,304,1.0,7.0,98,0.03,,,0.05,0,WeatherCatV1.13B101,2013-02-14 06:05:00,
2013-02-14 06:10:00,45.3,44.8,29.73,NW,315,3.0,5.0,98,0.03,,,0.05,0,WeatherCatV1.13B101,2013-02-14 06:10:00,
2013-02-14 06:15:00,45.4,44.9,29.72,West,270,3.0,10.0,98,0.05,,,0.06,0,WeatherCatV1.13B101,2013-02-14 06:15:00,
2013-02-14 06:20:00,45.4,44.9,29.72,WNW,286,1.0,8.0,98,0.08,,,0.07,0,WeatherCatV1.13B101,2013-02-14 06:20:00,
2013-02-14 06:25:00,45.5,45.0,29.72,NNW,329,7.0,7.0,98,0.06,,,0.07,0,WeatherCatV1.13B101,2013-02-14 06:25:00,
2013-02-14 06:30:00,45.6,45.1,29.72,NNW,328,10.0,10.0,98,0.04,,,0.07,0,WeatherCatV1.13B101,2013-02-14 06:30:00,
2013-02-14 06:35:00,45.6,45.1,29.72,West,268,4.0,7.0,98,0.04,,,0.08,0,WeatherCatV1.13B101,2013-02-14 06:35:00,
2013-02-14 06:40:00,45.7,45.2,29.72,NNE,16,3.0,5.0,98,0.04,,,0.08,0,WeatherCatV1.13B101,2013-02-14 06:40:00,
2013-02-14 06:45:00,45.8,45.3,29.72,NW,323,7.0,11.0,98,0.03,,,0.08,0,WeatherCatV1.13B101,2013-02-14 06:45:00,
2013-02-14 06:50:00,45.9,45.4,29.72,NW,318,4.0,13.0,98,0.00,,,0.08,0,WeatherCatV1.13B101,2013-02-14 06:50:00,
2013-02-14 06:55:00,45.9,45.4,29.72,NW,308,8.0,10.0,98,0.00,,,0.09,0,WeatherCatV1.13B101,2013-02-14 06:55:00,
2013-02-14 07:00:00,46.0,45.5,29.73,West,273,7.0,8.0,98,0.00,,,0.09,0,WeatherCatV1.13B101,2013-02-14 07:00:00,
2013-02-14 07:05:00,46.0,45.5,29.73,NW,319,9.0,9.0,98,0.00,,,0.09,0,WeatherCatV1.13B101,2013-02-14 07:05:00,
2013-02-14 07:10:00,46.0,45.5,29.73,WNW,301,4.0,10.0,98,0.00,,,0.09,0,WeatherCatV1.13B101,2013-02-14 07:10:00,
2013-02-14 07:11:00,46.0,45.5,29.73,NW,311,3.0,6.0,98,0.00,,,0.09,0,WeatherCatV1.13B101,2013-02-14 07:11:00,
2013-02-14 07:16:00,46.1,45.6,29.73,NW,308,6.0,6.0,98,0.00,,,0.09,0,WeatherCatV1.13B101,2013-02-14 07:16:00,
2013-02-14 07:21:00,46.1,45.6,29.73,NW,313,3.0,6.0,98,0.00,,,0.09,0,WeatherCatV1.13B101,2013-02-14 07:21:00,
2013-02-14 07:26:00,46.2,45.7,29.73,NW,311,5.0,8.0,98,0.00,,,0.09,0,WeatherCatV1.13B101,2013-02-14 07:26:00,
2013-02-14 07:31:00,46.3,45.8,29.73,NW,309,4.0,10.0,98,0.00,,,0.09,0,WeatherCatV1.13B101,2013-02-14 07:31:00,
2013-02-14 07:36:00,46.4,45.9,29.73,WNW,298,7.0,8.0,98,0.00,,,0.09,0,WeatherCatV1.13B101,2013-02-14 07:36:00,
2013-02-14 07:41:00,46.4,45.9,29.73,NW,321,7.0,8.0,98,0.00,,,0.09,5,WeatherCatV1.13B101,2013-02-14 07:41:00,
2013-02-14 07:46:00,46.5,46.0,29.74,WNW,303,3.0,5.0,98,0.00,,,0.09,7,WeatherCatV1.13B101,2013-02-14 07:46:00,
2013-02-14 07:51:00,46.5,46.0,29.74,NW,325,4.0,8.0,98,0.00,,,0.09,7,WeatherCatV1.13B101,2013-02-14 07:51:00,
2013-02-14 07:56:00,46.5,46.0,29.74,NW,315,4.0,8.0,98,0.00,,,0.09,7,WeatherCatV1.13B101,2013-02-14 07:56:00,
2013-02-14 08:01:00,46.5,46.0,29.74,WNW,299,4.0,6.0,98,0.00,,,0.09,7,WeatherCatV1.13B101,2013-02-14 08:01:00,
2013-02-14 08:06:00,46.5,46.0,29.74,NW,306,1.0,5.0,98,0.00,,,0.09,7,WeatherCatV1.13B101,2013-02-14 08:06:00,
2013-02-14 08:11:00,46.4,45.9,29.75,WNW,299,2.0,7.0,98,0.00,,,0.09,9,WeatherCatV1.13B101,2013-02-14 08:11:00,
2013-02-14 08:16:00,46.4,45.9,29.75,NW,321,2.0,6.0,98,0.00,,,0.09,12,WeatherCatV1.13B101,2013-02-14 08:16:00,
2013-02-14 08:21:00,46.4,45.9,29.75,NW,313,1.0,4.0,98,0.00,,,0.09,18,WeatherCatV1.13B101,2013-02-14 08:21:00,
2013-02-14 08:26:00,46.4,45.9,29.75,NW,313,2.0,3.0,98,0.00,,,0.09,23,WeatherCatV1.13B101,2013-02-14 08:26:00,
2013-02-14 08:31:00,46.2,45.7,29.75,NW,314,3.0,4.0,98,0.00,,,0.09,39,WeatherCatV1.13B101,2013-02-14 08:31:00,
2013-02-14 08:36:00,46.1,45.6,29.75,NW,316,4.0,6.0,98,0.00,,,0.09,47,WeatherCatV1.13B101,2013-02-14 08:36:00,
2013-02-14 08:41:00,46.1,45.6,29.76,NW,308,3.0,3.0,98,0.00,,,0.09,74,WeatherCatV1.13B101,2013-02-14 08:41:00,
2013-02-14 08:46:00,46.2,45.7,29.76,NW,312,3.0,5.0,98,0.00,,,0.09,69,WeatherCatV1.13B101,2013-02-14 08:46:00,
2013-02-14 08:51:00,46.3,45.8,29.76,NW,312,0.0,4.0,98,0.00,,,0.09,79,WeatherCatV1.13B101,2013-02-14 08:51:00,
2013-02-14 08:56:00,46.4,45.9,29.77,NW,310,3.0,4.0,98,0.00,,,0.09,104,WeatherCatV1.13B101,2013-02-14 08:56:00,
2013-02-14 09:01:00,46.5,46.0,29.77,NW,312,2.0,6.0,98,0.00,,,0.09,111,WeatherCatV1.13B101,2013-02-14 09:01:00,
2013-02-14 09:06:00,46.6,46.1,29.77,NW,325,2.0,7.0,98,0.00,,,0.09,127,WeatherCatV1.13B101,2013-02-14 09:06:00,
2013-02-14 09:11:00,46.8,46.3,29.77,NW,311,1.0,5.0,98,0.00,,,0.09,63,WeatherCatV1.13B101,2013-02-14 09:11:00,
2013-02-14 09:16:00,46.8,46.0,29.78,NNW,329,3.0,4.0,97,0.00,,,0.09,90,WeatherCatV1.13B101,2013-02-14 09:16:00,
2013-02-14 09:21:00,46.9,46.1,29.78,NW,317,2.0,5.0,97,0.00,,,0.09,148,WeatherCatV1.13B101,2013-02-14 09:21:00,
2013-02-14 09:26:00,47.1,46.3,29.78,NNW,335,2.0,5.0,97,0.00,,,0.09,104,WeatherCatV1.13B101,2013-02-14 09:26:00,
2013-02-14 09:31:00,47.2,46.4,29.78,NW,313,2.0,6.0,97,0.00,,,0.09,109,WeatherCatV1.13B101,2013-02-14 09:31:00,
2013-02-14 09:36:00,47.2,46.4,29.78,NW,309,4.0,7.0,97,0.00,,,0.09,97,WeatherCatV1.13B101,2013-02-14 09:36:00,
2013-02-14 09:41:00,47.3,46.5,29.78,WNW,301,4.0,6.0,97,0.00,,,0.09,93,WeatherCatV1.13B101,2013-02-14 09:41:00,
2013-02-14 09:46:00,47.4,46.6,29.78,NW,323,4.0,6.0,97,0.00,,,0.09,72,WeatherCatV1.13B101,2013-02-14 09:46:00,
2013-02-14 09:51:00,47.4,46.6,29.79,NW,309,2.0,6.0,97,0.00,,,0.09,88,WeatherCatV1.13B101,2013-02-14 09:51:00,
2013-02-14 09:56:00,47.5,46.7,29.79,NW,317,2.0,4.0,97,0.00,,,0.09,188,WeatherCatV1.13B101,2013-02-14 09:56:00,
2013-02-14 10:01:00,47.7,46.9,29.79,NW,323,0.0,6.0,97,0.00,,,0.09,37,WeatherCatV1.13B101,2013-02-14 10:01:00,
2013-02-14 10:06:00,47.6,46.8,29.79,NW,321,4.0,6.0,97,0.00,,,0.09,19,WeatherCatV1.13B101,2013-02-14 10:06:00,
2013-02-14 10:11:00,47.5,46.4,29.79,NW,310,0.0,4.0,96,0.00,,,0.09,33,WeatherCatV1.13B101,2013-02-14 10:11:00,
2013-02-14 10:16:00,47.3,46.2,29.80,WNW,302,2.0,5.0,96,0.00,,,0.09,111,WeatherCatV1.13B101,2013-02-14 10:16:00,
2013-02-14 10:21:00,47.4,46.3,29.80,NW,318,3.0,6.0,96,0.00,,,0.09,158,WeatherCatV1.13B101,2013-02-14 10:21:00,
2013-02-14 10:26:00,47.6,46.5,29.80,NNW,336,5.0,7.0,96,0.00,,,0.09,308,WeatherCatV1.13B101,2013-02-14 10:26:00,
2013-02-14 10:31:00,47.9,46.8,29.80,NNW,327,4.0,6.0,96,0.00,,,0.09,209,WeatherCatV1.13B101,2013-02-14 10:31:00,
2013-02-14 10:36:00,47.9,46.5,29.80,NW,315,2.0,5.0,95,0.00,,,0.09,218,WeatherCatV1.13B101,2013-02-14 10:36:00,
2013-02-14 10:41:00,48.3,46.7,29.81,WNW,300,3.0,4.0,94,0.00,,,0.09,473,WeatherCatV1.13B101,2013-02-14 10:41:00,
2013-02-14 10:46:00,48.5,46.6,29.81,NW,309,4.0,14.0,93,0.00,,,0.09,192,WeatherCatV1.13B101,2013-02-14 10:46:00,
2013-02-14 10:51:00,48.5,46.0,29.81,WNW,296,2.0,7.0,91,0.00,,,0.09,445,WeatherCatV1.13B101,2013-02-14 10:51:00,
2013-02-14 10:56:00,48.6,45.8,29.80,NNW,327,2.0,6.0,90,0.00,,,0.09,424,WeatherCatV1.13B101,2013-02-14 10:56:00,
2013-02-14 11:01:00,48.8,46.0,29.80,NW,313,0.0,5.0,90,0.00,,,0.09,411,WeatherCatV1.13B101,2013-02-14 11:01:00,
2013-02-14 11:06:00,49.1,46.0,29.81,NW,315,4.0,11.0,89,0.00,,,0.09,427,WeatherCatV1.13B101,2013-02-14 11:06:00,
2013-02-14 11:11:00,49.3,45.9,29.81,NW,313,4.0,7.0,88,0.00,,,0.09,462,WeatherCatV1.13B101,2013-02-14 11:11:00,
2013-02-14 11:16:00,49.4,45.4,29.81,NW,304,4.0,9.0,86,0.00,,,0.09,130,WeatherCatV1.13B101,2013-02-14 11:16:00,
2013-02-14 11:21:00,49.0,45.0,29.81,NW,313,2.0,9.0,86,0.00,,,0.09,179,WeatherCatV1.13B101,2013-02-14 11:21:00,
2013-02-14 11:26:00,49.4,45.4,29.81,NW,311,1.0,9.0,86,0.00,,,0.09,563,WeatherCatV1.13B101,2013-02-14 11:26:00,
2013-02-14 11:31:00,49.5,44.9,29.81,West,270,6.0,9.0,84,0.00,,,0.09,199,WeatherCatV1.13B101,2013-02-14 11:31:00,
2013-02-14 11:36:00,49.4,44.8,29.81,NNW,340,3.0,7.0,84,0.00,,,0.09,207,WeatherCatV1.13B101,2013-02-14 11:36:00,
2013-02-14 11:41:00,49.4,44.8,29.81,NW,312,3.0,7.0,84,0.00,,,0.09,582,WeatherCatV1.13B101,2013-02-14 11:41:00,
2013-02-14 11:46:00,49.5,44.6,29.81,NW,317,2.0,8.0,83,0.00,,,0.09,380,WeatherCatV1.13B101,2013-02-14 11:46:00,
2013-02-14 11:51:00,49.2,43.9,29.81,NW,313,2.0,10.0,82,0.00,,,0.09,132,WeatherCatV1.13B101,2013-02-14 11:51:00,
2013-02-14 11:56:00,48.9,44.0,29.81,NW,321,3.0,8.0,83,0.00,,,0.09,141,WeatherCatV1.13B101,2013-02-14 11:56:00,
2013-02-14 12:01:00,48.8,43.6,29.81,SW,229,2.0,7.0,82,0.00,,,0.09,156,WeatherCatV1.13B101,2013-02-14 12:01:00,
2013-02-14 12:06:00,48.8,43.6,29.81,NW,312,5.0,7.0,82,0.00,,,0.09,102,WeatherCatV1.13B101,2013-02-14 12:06:00,
2013-02-14 12:11:00,48.8,43.9,29.81,NW,309,4.0,6.0,83,0.00,,,0.09,169,WeatherCatV1.13B101,2013-02-14 12:11:00,
2013-02-14 12:16:00,48.9,44.3,29.81,NW,316,1.0,5.0,84,0.00,,,0.09,260,WeatherCatV1.13B101,2013-02-14 12:16:00,
2013-02-14 12:21:00,49.1,44.2,29.81,NW,309,3.0,12.0,83,0.00,,,0.09,146,WeatherCatV1.13B101,2013-02-14 12:21:00,
2013-02-14 12:26:00,49.1,43.8,29.82,WNW,296,6.0,7.0,82,0.00,,,0.09,211,WeatherCatV1.13B101,2013-02-14 12:26:00,
2013-02-14 12:31:00,49.1,44.2,29.82,NW,315,3.0,10.0,83,0.00,,,0.09,290,WeatherCatV1.13B101,2013-02-14 12:31:00,
2013-02-14 12:36:00,49.2,43.9,29.82,North,349,3.0,12.0,82,0.00,,,0.09,246,WeatherCatV1.13B101,2013-02-14 12:36:00,
2013-02-14 12:41:00,49.3,43.7,29.82,WNW,288,5.0,7.0,81,0.00,,,0.09,246,WeatherCatV1.13B101,2013-02-14 12:41:00,
2013-02-14 12:46:00,49.3,43.7,29.82,WNW,298,3.0,8.0,81,0.00,,,0.09,213,WeatherCatV1.13B101,2013-02-14 12:46:00,
2013-02-14 12:51:00,49.4,43.8,29.82,WNW,288,4.0,9.0,81,0.00,,,0.09,162,WeatherCatV1.13B101,2013-02-14 12:51:00,
2013-02-14 12:56:00,49.5,44.2,29.82,NW,317,5.0,7.0,82,0.00,,,0.09,429,WeatherCatV1.13B101,2013-02-14 12:56:00,
2013-02-14 13:01:00,50.3,44.4,29.82,NW,306,4.0,8.0,80,0.00,,,0.09,703,WeatherCatV1.13B101,2013-02-14 13:01:00,
2013-02-14 13:06:00,50.5,44.2,29.82,WNW,291,5.0,9.0,79,0.00,,,0.09,376,WeatherCatV1.13B101,2013-02-14 13:06:00,
2013-02-14 13:11:00,50.4,43.8,29.82,West,281,4.0,5.0,78,0.00,,,0.09,285,WeatherCatV1.13B101,2013-02-14 13:11:00,
2013-02-14 13:16:00,50.6,44.3,29.82,NW,307,5.0,6.0,79,0.00,,,0.09,144,WeatherCatV1.13B101,2013-02-14 13:16:00,
2013-02-14 13:21:00,50.0,43.4,29.82,NW,310,5.0,5.0,78,0.00,,,0.09,232,WeatherCatV1.13B101,2013-02-14 13:21:00,
2013-02-14 13:26:00,50.1,42.8,29.82,NW,319,2.0,6.0,76,0.00,,,0.09,234,WeatherCatV1.13B101,2013-02-14 13:26:00,
2013-02-14 13:31:00,50.0,42.7,29.83,NW,320,0.0,3.0,76,0.00,,,0.09,58,WeatherCatV1.13B101,2013-02-14 13:31:00,
2013-02-14 13:36:00,49.7,43.1,29.83,West,263,5.0,8.0,78,0.00,,,0.09,67,WeatherCatV1.13B101,2013-02-14 13:36:00,
2013-02-14 13:41:00,49.2,42.6,29.83,WNW,289,6.0,9.0,78,0.00,,,0.09,142,WeatherCatV1.13B101,2013-02-14 13:41:00,
2013-02-14 13:46:00,49.0,42.1,29.83,WNW,299,0.0,9.0,77,0.00,,,0.09,167,WeatherCatV1.13B101,2013-02-14 13:46:00,
2013-02-14 13:51:00,49.1,42.2,29.83,NW,308,4.0,5.0,77,0.00,,,0.09,223,WeatherCatV1.13B101,2013-02-14 13:51:00,
2013-02-14 13:56:00,49.6,42.7,29.83,NW,315,0.0,5.0,77,0.00,,,0.09,329,WeatherCatV1.13B101,2013-02-14 13:56:00,
2013-02-14 14:01:00,49.9,42.6,29.83,NW,314,6.0,7.0,76,0.00,,,0.09,199,WeatherCatV1.13B101,2013-02-14 14:01:00,
2013-02-14 14:06:00,49.8,42.5,29.83,NNW,333,3.0,6.0,76,0.00,,,0.09,125,WeatherCatV1.13B101,2013-02-14 14:06:00,
2013-02-14 14:11:00,49.7,42.4,29.83,NW,309,3.0,7.0,76,0.00,,,0.09,137,WeatherCatV1.13B101,2013-02-14 14:11:00,
2013-02-14 14:16:00,49.6,42.0,29.83,NNW,329,5.0,7.0,75,0.00,,,0.09,127,WeatherCatV1.13B101,2013-02-14 14:16:00,
2013-02-14 14:21:00,49.6,42.0,29.83,NW,305,1.0,6.0,75,0.00,,,0.09,156,WeatherCatV1.13B101,2013-02-14 14:21:00,
2013-02-14 14:26:00,49.9,42.6,29.83,WNW,290,1.0,7.0,76,0.00,,,0.09,503,WeatherCatV1.13B101,2013-02-14 14:26:00,
2013-02-14 14:31:00,51.0,42.7,29.83,NNW,343,5.0,8.0,73,0.00,,,0.09,167,WeatherCatV1.13B101,2013-02-14 14:31:00,
2013-02-14 14:36:00,50.7,42.7,29.83,NW,319,4.0,8.0,74,0.00,,,0.09,90,WeatherCatV1.13B101,2013-02-14 14:36:00,
2013-02-14 14:41:00,50.2,43.6,29.84,South,178,3.0,6.0,78,0.00,,,0.09,91,WeatherCatV1.13B101,2013-02-14 14:41:00,
2013-02-14 14:46:00,48.9,43.3,29.84,NW,323,2.0,3.0,81,0.00,,,0.09,116,WeatherCatV1.13B101,2013-02-14 14:46:00,
2013-02-14 14:51:00,48.2,43.6,29.84,NNW,341,0.0,1.0,84,0.00,,,0.09,65,WeatherCatV1.13B101,2013-02-14 14:51:00,
2013-02-14 14:56:00,48.1,43.2,29.84,WNW,284,2.0,5.0,83,0.00,,,0.09,70,WeatherCatV1.13B101,2013-02-14 14:56:00,
2013-02-14 15:01:00,48.2,43.3,29.84,NW,319,1.0,5.0,83,0.00,,,0.09,93,WeatherCatV1.13B101,2013-02-14 15:01:00,
2013-02-14 15:06:00,48.4,43.5,29.84,NW,305,4.0,5.0,83,0.00,,,0.09,127,WeatherCatV1.13B101,2013-02-14 15:06:00,
2013-02-14 15:11:00,48.7,43.1,29.84,WNW,302,3.0,4.0,81,0.00,,,0.09,102,WeatherCatV1.13B101,2013-02-14 15:11:00,
2013-02-14 15:16:00,48.9,43.0,29.84,WNW,302,2.0,5.0,80,0.00,,,0.09,102,WeatherCatV1.13B101,2013-02-14 15:16:00,
2013-02-14 15:21:00,49.1,42.5,29.84,WNW,300,3.0,4.0,78,0.00,,,0.09,74,WeatherCatV1.13B101,2013-02-14 15:21:00,
2013-02-14 15:26:00,49.2,42.6,29.84,NW,320,5.0,5.0,78,0.00,,,0.09,53,WeatherCatV1.13B101,2013-02-14 15:26:00,
2013-02-14 15:31:00,49.2,42.0,29.84,NW,316,0.0,4.0,76,0.00,,,0.09,44,WeatherCatV1.13B101,2013-02-14 15:31:00,
2013-02-14 15:36:00,49.1,41.5,29.84,NNW,329,3.0,6.0,75,0.00,,,0.09,67,WeatherCatV1.13B101,2013-02-14 15:36:00,
2013-02-14 15:41:00,49.2,41.6,29.84,NW,305,1.0,6.0,75,0.00,,,0.09,77,WeatherCatV1.13B101,2013-02-14 15:41:00,
2013-02-14 15:46:00,49.1,41.5,29.85,NNW,331,3.0,5.0,75,0.00,,,0.09,56,WeatherCatV1.13B101,2013-02-14 15:46:00,
2013-02-14 15:51:00,49.1,41.2,29.85,North,355,1.0,6.0,74,0.00,,,0.09,53,WeatherCatV1.13B101,2013-02-14 15:51:00,
2013-02-14 15:56:00,49.2,41.3,29.85,NNW,329,1.0,6.0,74,0.00,,,0.09,49,WeatherCatV1.13B101,2013-02-14 15:56:00,
2013-02-14 16:01:00,49.1,41.5,29.85,WNW,302,1.0,3.0,75,0.00,,,0.09,60,WeatherCatV1.13B101,2013-02-14 16:01:00,
2013-02-14 16:06:00,49.1,41.5,29.85,NNW,329,0.0,4.0,75,0.00,,,0.09,51,WeatherCatV1.13B101,2013-02-14 16:06:00,
2013-02-14 16:11:00,49.2,42.0,29.85,NW,313,1.0,4.0,76,0.00,,,0.09,69,WeatherCatV1.13B101,2013-02-14 16:11:00,
2013-02-14 16:16:00,49.2,41.6,29.85,NW,308,2.0,5.0,75,0.00,,,0.09,60,WeatherCatV1.13B101,2013-02-14 16:16:00,
2013-02-14 16:21:00,49.3,41.7,29.86,NNE,17,2.0,5.0,75,0.00,,,0.09,60,WeatherCatV1.13B101,2013-02-14 16:21:00,
2013-02-14 16:26:00,49.4,41.8,29.86,NW,311,3.0,5.0,75,0.00,,,0.09,49,WeatherCatV1.13B101,2013-02-14 16:26:00,
2013-02-14 16:31:00,49.6,42.3,29.86,NW,310,0.0,4.0,76,0.00,,,0.09,56,WeatherCatV1.13B101,2013-02-14 16:31:00,
2013-02-14 16:32:00,49.7,42.4,29.86,NW,310,0.0,4.0,76,0.00,,,0.09,49,WeatherCatV1.13B101,2013-02-14 16:32:00,
2013-02-14 16:37:00,49.8,42.2,29.86,NNW,329,2.0,6.0,75,0.00,,,0.09,32,WeatherCatV1.13B101,2013-02-14 16:37:00,
2013-02-14 16:42:00,49.5,41.6,29.86,WNW,289,1.0,7.0,74,0.00,,,0.09,30,WeatherCatV1.13B101,2013-02-14 16:42:00,
2013-02-14 16:47:00,49.4,42.2,29.86,WNW,299,1.0,5.0,76,0.00,,,0.09,26,WeatherCatV1.13B101,2013-02-14 16:47:00,
2013-02-14 16:52:00,49.2,42.0,29.86,NW,309,2.0,6.0,76,0.00,,,0.09,19,WeatherCatV1.13B101,2013-02-14 16:52:00,
2013-02-14 16:57:00,49.2,42.3,29.86,NW,309,0.0,4.0,77,0.00,,,0.09,14,WeatherCatV1.13B101,2013-02-14 16:57:00,
2013-02-14 17:02:00,49.0,42.1,29.86,NW,308,1.0,4.0,77,0.00,,,0.09,12,WeatherCatV1.13B101,2013-02-14 17:02:00,
2013-02-14 17:07:00,48.8,41.9,29.86,WNW,303,3.0,3.0,77,0.00,,,0.09,9,WeatherCatV1.13B101,2013-02-14 17:07:00,
2013-02-14 17:12:00,48.6,42.1,29.86,NW,306,1.0,4.0,78,0.00,,,0.09,5,WeatherCatV1.13B101,2013-02-14 17:12:00,
2013-02-14 17:17:00,48.5,42.3,29.87,NW,309,3.0,4.0,79,0.00,,,0.09,0,WeatherCatV1.13B101,2013-02-14 17:17:00,
2013-02-14 17:22:00,48.3,42.1,29.87,NW,318,1.0,5.0,79,0.00,,,0.09,0,WeatherCatV1.13B101,2013-02-14 17:22:00,
2013-02-14 17:27:00,48.1,41.9,29.87,NW,318,0.0,1.0,79,0.00,,,0.09,0,WeatherCatV1.13B101,2013-02-14 17:27:00,
2013-02-14 17:32:00,47.8,41.6,29.87,NW,304,0.0,0.0,79,0.00,,,0.09,0,WeatherCatV1.13B101,2013-02-14 17:32:00,
2013-02-14 17:37:00,47.6,41.7,29.87,NW,304,2.0,3.0,80,0.00,,,0.10,0,WeatherCatV1.13B101,2013-02-14 17:37:00,
2013-02-14 17:42:00,47.3,41.4,29.88,NW,318,0.0,4.0,80,0.00,,,0.10,0,WeatherCatV1.13B101,2013-02-14 17:42:00,
2013-02-14 17:47:00,47.2,41.7,29.88,NW,318,0.0,2.0,81,0.00,,,0.10,0,WeatherCatV1.13B101,2013-02-14 17:47:00,
2013-02-14 17:52:00,47.0,41.5,29.88,NW,318,0.0,2.0,81,0.00,,,0.10,0,WeatherCatV1.13B101,2013-02-14 17:52:00,
2013-02-14 17:57:00,46.9,41.4,29.88,NW,318,1.0,2.0,81,0.00,,,0.10,0,WeatherCatV1.13B101,2013-02-14 17:57:00,
2013-02-14 18:02:00,46.7,41.2,29.88,NW,318,0.0,2.0,81,0.00,,,0.10,0,WeatherCatV1.13B101,2013-02-14 18:02:00,
2013-02-14 18:07:00,46.5,41.3,29.88,NW,318,1.0,2.0,82,0.00,,,0.10,0,WeatherCatV1.13B101,2013-02-14 18:07:00,
2013-02-14 18:12:00,46.3,41.1,29.88,NW,318,2.0,2.0,82,0.00,,,0.10,0,WeatherCatV1.13B101,2013-02-14 18:12:00,
2013-02-14 18:17:00,46.1,40.9,29.88,NW,317,1.0,3.0,82,0.00,,,0.10,0,WeatherCatV1.13B101,2013-02-14 18:17:00,
2013-02-14 18:22:00,46.0,41.1,29.88,NW,321,3.0,3.0,83,0.00,,,0.10,0,WeatherCatV1.13B101,2013-02-14 18:22:00,
2013-02-14 18:27:00,45.9,41.0,29.88,NW,321,0.0,1.0,83,0.00,,,0.10,0,WeatherCatV1.13B101,2013-02-14 18:27:00,
2013-02-14 18:32:00,45.9,41.0,29.88,NW,321,0.0,0.0,83,0.00,,,0.10,0,WeatherCatV1.13B101,2013-02-14 18:32:00,
2013-02-14 18:37:00,45.8,40.9,29.89,NW,321,0.0,1.0,83,0.00,,,0.10,0,WeatherCatV1.13B101,2013-02-14 18:37:00,
2013-02-14 18:42:00,45.6,41.0,29.89,NW,321,0.0,0.0,84,0.00,,,0.10,0,WeatherCatV1.13B101,2013-02-14 18:42:00,
2013-02-14 18:47:00,45.5,41.0,29.89,NW,321,0.0,0.0,84,0.00,,,0.10,0,WeatherCatV1.13B101,2013-02-14 18:47:00,
2013-02-14 18:52:00,45.4,40.9,29.89,NW,321,0.0,0.0,84,0.00,,,0.10,0,WeatherCatV1.13B101,2013-02-14 18:52:00,
2013-02-14 18:57:00,45.3,40.8,29.89,NW,321,0.0,1.0,84,0.00,,,0.10,0,WeatherCatV1.13B101,2013-02-14 18:57:00,
2013-02-14 19:02:00,45.2,40.7,29.90,NW,306,1.0,4.0,84,0.00,,,0.10,0,WeatherCatV1.13B101,2013-02-14 19:02:00,
2013-02-14 19:07:00,45.2,40.7,29.90,NW,312,2.0,4.0,84,0.00,,,0.10,0,WeatherCatV1.13B101,2013-02-14 19:07:00,
2013-02-14 19:12:00,45.3,40.8,29.90,NW,304,2.0,3.0,84,0.00,,,0.10,0,WeatherCatV1.13B101,2013-02-14 19:12:00,
2013-02-14 19:17:00,45.5,40.6,29.90,NE,42,3.0,7.0,83,0.00,,,0.10,0,WeatherCatV1.13B101,2013-02-14 19:17:00,
2013-02-14 19:22:00,45.7,40.8,29.90,NW,307,0.0,4.0,83,0.00,,,0.10,0,WeatherCatV1.13B101,2013-02-14 19:22:00,
2013-02-14 19:27:00,45.8,40.9,29.90,NW,313,2.0,3.0,83,0.00,,,0.10,0,WeatherCatV1.13B101,2013-02-14 19:27:00,
2013-02-14 19:32:00,45.7,40.8,29.90,NNW,337,2.0,5.0,83,0.00,,,0.10,0,WeatherCatV1.13B101,2013-02-14 19:32:00,
2013-02-14 19:37:00,45.6,40.7,29.91,NW,313,2.0,4.0,83,0.00,,,0.10,0,WeatherCatV1.13B101,2013-02-14 19:37:00,
2013-02-14 19:42:00,45.6,40.7,29.91,NW,311,1.0,5.0,83,0.00,,,0.10,0,WeatherCatV1.13B101,2013-02-14 19:42:00,
2013-02-14 19:47:00,45.6,40.7,29.91,NW,306,3.0,6.0,83,0.00,,,0.10,0,WeatherCatV1.13B101,2013-02-14 19:47:00,
2013-02-14 19:52:00,45.5,40.6,29.91,WNW,296,6.0,6.0,83,0.00,,,0.10,0,WeatherCatV1.13B101,2013-02-14 19:52:00,
2013-02-14 19:57:00,45.4,40.9,29.92,NW,315,1.0,3.0,84,0.00,,,0.10,0,WeatherCatV1.13B101,2013-02-14 19:57:00,
2013-02-14 20:02:00,45.2,41.0,29.92,NW,323,2.0,3.0,85,0.00,,,0.10,0,WeatherCatV1.13B101,2013-02-14 20:02:00,
2013-02-14 20:07:00,45.1,40.9,29.92,NNW,328,0.0,2.0,85,0.00,,,0.10,0,WeatherCatV1.13B101,2013-02-14 20:07:00,
2013-02-14 20:12:00,44.9,40.7,29.92,NNW,327,0.0,2.0,85,0.00,,,0.10,0,WeatherCatV1.13B101,2013-02-14 20:12:00,
2013-02-14 20:17:00,44.8,40.6,29.92,NW,320,0.0,3.0,85,0.00,,,0.10,0,WeatherCatV1.13B101,2013-02-14 20:17:00,
2013-02-14 20:22:00,44.6,40.7,29.92,NW,321,0.0,3.0,86,0.00,,,0.10,0,WeatherCatV1.13B101,2013-02-14 20:22:00,
2013-02-14 20:27:00,44.5,40.6,29.92,NNW,340,0.0,3.0,86,0.00,,,0.10,0,WeatherCatV1.13B101,2013-02-14 20:27:00,
2013-02-14 20:32:00,44.3,40.4,29.92,NNW,341,0.0,1.0,86,0.00,,,0.10,0,WeatherCatV1.13B101,2013-02-14 20:32:00,
2013-02-14 20:37:00,44.0,40.1,29.92,NNW,341,0.0,0.0,86,0.00,,,0.10,0,WeatherCatV1.13B101,2013-02-14 20:37:00,
2013-02-14 20:42:00,43.8,40.2,29.92,NNW,341,0.0,0.0,87,0.00,,,0.10,0,WeatherCatV1.13B101,2013-02-14 20:42:00,
2013-02-14 20:47:00,43.6,40.0,29.92,NNW,341,1.0,2.0,87,0.00,,,0.10,0,WeatherCatV1.13B101,2013-02-14 20:47:00,
2013-02-14 20:52:00,43.4,40.1,29.92,NW,319,1.0,3.0,88,0.00,,,0.10,0,WeatherCatV1.13B101,2013-02-14 20:52:00,
2013-02-14 20:57:00,43.3,40.0,29.93,NW,319,0.0,0.0,88,0.00,,,0.10,0,WeatherCatV1.13B101,2013-02-14 20:57:00,
2013-02-14 21:02:00,43.1,39.8,29.93,NW,319,0.0,2.0,88,0.00,,,0.10,0,WeatherCatV1.13B101,2013-02-14 21:02:00,
2013-02-14 21:07:00,43.0,40.0,29.93,NW,319,1.0,1.0,89,0.00,,,0.10,0,WeatherCatV1.13B101,2013-02-14 21:07:00,
2013-02-14 21:12:00,42.8,39.8,29.93,NW,319,0.0,1.0,89,0.00,,,0.10,0,WeatherCatV1.13B101,2013-02-14 21:12:00,
2013-02-14 21:17:00,42.7,39.7,29.93,NW,319,0.0,0.0,89,0.00,,,0.10,0,WeatherCatV1.13B101,2013-02-14 21:17:00,
2013-02-14 21:22:00,42.5,39.5,29.93,NW,319,0.0,0.0,89,0.00,,,0.10,0,WeatherCatV1.13B101,2013-02-14 21:22:00,
2013-02-14 21:27:00,42.4,39.7,29.93,NW,319,0.0,0.0,90,0.00,,,0.10,0,WeatherCatV1.13B101,2013-02-14 21:27:00,
2013-02-14 21:32:00,42.2,39.5,29.93,NW,319,0.0,1.0,90,0.00,,,0.10,0,WeatherCatV1.13B101,2013-02-14 21:32:00,
2013-02-14 21:37:00,42.1,39.4,29.93,NW,319,0.0,0.0,90,0.00,,,0.10,0,WeatherCatV1.13B101,2013-02-14 21:37:00,
2013-02-14 21:42:00,41.9,39.5,29.94,NW,319,0.0,0.0,91,0.00,,,0.10,0,WeatherCatV1.13B101,2013-02-14 21:42:00,
2013-02-14 21:47:00,41.8,39.4,29.93,NW,319,0.0,0.0,91,0.00,,,0.10,0,WeatherCatV1.13B101,2013-02-14 21:47:00,
2013-02-14 21:52:00,41.7,39.3,29.94,NW,319,0.0,1.0,91,0.00,,,0.10,0,WeatherCatV1.13B101,2013-02-14 21:52:00,
2013-02-14 21:57:00,41.5,39.1,29.94,NW,319,0.0,0.0,91,0.00,,,0.10,0,WeatherCatV1.13B101,2013-02-14 21:57:00,
2013-02-14 22:02:00,41.4,39.0,29.94,NW,319,0.0,1.0,91,0.00,,,0.10,0,WeatherCatV1.13B101,2013-02-14 22:02:00,
2013-02-14 22:07:00,41.2,39.1,29.94,NW,319,0.0,1.0,92,0.00,,,0.10,0,WeatherCatV1.13B101,2013-02-14 22:07:00,
2013-02-14 22:12:00,41.2,39.1,29.94,NW,319,0.0,0.0,92,0.00,,,0.10,0,WeatherCatV1.13B101,2013-02-14 22:12:00,
2013-02-14 22:17:00,41.2,39.1,29.94,NW,323,0.0,1.0,92,0.00,,,0.10,0,WeatherCatV1.13B101,2013-02-14 22:17:00,
2013-02-14 22:22:00,41.2,39.1,29.95,NW,323,1.0,1.0,92,0.00,,,0.10,0,WeatherCatV1.13B101,2013-02-14 22:22:00,
2013-02-14 22:27:00,41.2,39.1,29.95,NW,323,0.0,0.0,92,0.00,,,0.10,0,WeatherCatV1.13B101,2013-02-14 22:27:00,
2013-02-14 22:32:00,41.2,39.1,29.95,NW,323,0.0,1.0,92,0.00,,,0.10,0,WeatherCatV1.13B101,2013-02-14 22:32:00,
2013-02-14 22:37:00,41.2,39.1,29.95,NW,323,0.0,1.0,92,0.00,,,0.10,0,WeatherCatV1.13B101,2013-02-14 22:37:00,
2013-02-14 22:42:00,41.1,39.0,29.95,NNW,333,0.0,4.0,92,0.00,,,0.10,0,WeatherCatV1.13B101,2013-02-14 22:42:00,
2013-02-14 22:47:00,41.2,39.1,29.95,NNW,333,0.0,1.0,92,0.00,,,0.10,0,WeatherCatV1.13B101,2013-02-14 22:47:00,
2013-02-14 22:52:00,41.1,39.0,29.95,NNW,334,0.0,0.0,92,0.00,,,0.10,0,WeatherCatV1.13B101,2013-02-14 22:52:00,
2013-02-14 22:57:00,41.1,39.0,29.95,NNW,334,0.0,1.0,92,0.00,,,0.10,0,WeatherCatV1.13B101,2013-02-14 22:57:00,
2013-02-14 23:02:00,41.1,39.0,29.95,NNW,334,0.0,0.0,92,0.00,,,0.10,0,WeatherCatV1.13B101,2013-02-14 23:02:00,
2013-02-14 23:07:00,41.0,38.6,29.95,NNW,334,0.0,0.0,91,0.00,,,0.10,0,WeatherCatV1.13B101,2013-02-14 23:07:00,
2013-02-14 23:12:00,41.0,38.6,29.95,NNW,334,0.0,0.0,91,0.00,,,0.10,0,WeatherCatV1.13B101,2013-02-14 23:12:00,
2013-02-14 23:17:00,40.9,38.5,29.95,NNW,334,0.0,0.0,91,0.00,,,0.10,0,WeatherCatV1.13B101,2013-02-14 23:17:00,
2013-02-14 23:22:00,40.8,38.7,29.95,NNW,334,0.0,0.0,92,0.00,,,0.10,0,WeatherCatV1.13B101,2013-02-14 23:22:00,
2013-02-14 23:27:00,40.7,38.6,29.95,NNW,334,0.0,0.0,92,0.00,,,0.10,0,WeatherCatV1.13B101,2013-02-14 23:27:00,
2013-02-14 23:32:00,40.6,38.5,29.96,NNW,334,0.0,0.0,92,0.00,,,0.10,0,WeatherCatV1.13B101,2013-02-14 23:32:00,
2013-02-14 23:37:00,40.4,38.3,29.96,NNW,334,0.0,0.0,92,0.00,,,0.10,0,WeatherCatV1.13B101,2013-02-14 23:37:00,
2013-02-14 23:42:00,40.3,38.2,29.96,NNW,334,0.0,0.0,92,0.00,,,0.10,0,WeatherCatV1.13B101,2013-02-14 23:42:00,
2013-02-14 23:47:00,40.1,38.0,29.97,NNW,334,0.0,0.0,92,0.00,,,0.10,0,WeatherCatV1.13B101,2013-02-14 23:47:00,
2013-02-14 23:52:00,40.0,37.9,29.96,NNW,334,0.0,0.0,92,0.00,,,0.10,0,WeatherCatV1.13B101,2013-02-14 23:52:00,
2013-02-14 23:57:00,39.8,37.7,29.96,NNW,334,0.0,0.0,92,0.00,,,0.10,0,WeatherCatV1.13B101,2013-02-14 23:57:00,